Flag for Lithuania Weather past 2 weeks in Vilnius, Lithuania

Now
30 °F

Passing clouds.


Feels Like: 21 °F
Forecast: 20 / 36 °F
Wind: 10 mph from East

Location: Vilnius Airport

Current Time: Oct 23, 2014 at 1:26:06 PM

Latest Report: Oct 23, 2014 at 12:50 PM


Visibility: N/A

Pressure: 30.30 "Hg

Humidity: 55%

Dew point: 16 °F

Location of VilniusLocation

Historic Weather in Vilnius — Graph

°F

Vilnius temperature yesterday

Maximum temperature yesterday: 43 °F (at 12:20 AM)
Minimum temperature yesterday: 28 °F (at 10:50 PM)
Average temperature yesterday: 34 °F

Past Weeks' High & Low Weather Summary

 TemperatureHumidityPressure
High68 °F (Oct 10, 2:20 PM)100% (Oct 11, 7:20 AM)30.33 "Hg (Oct 11, 7:20 AM)
Low23 °F (Oct 23, 5:50 AM)43% (Oct 11, 2:50 PM)29.50 "Hg (Oct 20, 7:50 PM)
Average49 °F86%29.89 "Hg
* Reported Oct 8 12:20 PM — Oct 23 12:20 PM, Vilnius, Weather by CustomWeather, © 2014

Note: Actual official high and low records may vary slightly from our data, if they occured in-between our weather recording intervals... More about our weather records

Advertising

Vilnius weather history for previous 24 hours

 ConditionsComfort  
Time TempWeatherWind HumidityBarometerVisibility
12:20 PM
Oct 23
30 °FPassing clouds.12 mph59%30.30 "HgN/A
11:50 AM28 °FPassing clouds.10 mph64%30.30 "HgN/A
11:20 AM27 °FPassing clouds.10 mph74%30.30 "HgN/A
10:50 AM25 °FPassing clouds.8 mph80%30.27 "HgN/A
10:20 AM25 °FPassing clouds.10 mph80%30.27 "HgN/A
9:50 AM25 °FPassing clouds.9 mph80%30.27 "HgN/A
9:20 AM23 °FPassing clouds.8 mph86%30.24 "HgN/A
8:50 AM23 °FPassing clouds.7 mph86%30.24 "HgN/A
8:20 AM23 °FPassing clouds.8 mph86%30.21 "HgN/A
7:50 AM23 °FPassing clouds.8 mph86%30.21 "HgN/A
7:20 AM23 °FPassing clouds.7 mph86%30.21 "HgN/A
6:50 AM23 °FClear.9 mph86%30.18 "Hg10 mi
6:20 AM23 °FPassing clouds.8 mph86%30.18 "HgN/A
5:50 AM23 °FPassing clouds.8 mph86%30.15 "HgN/A
5:20 AM25 °FPassing clouds.8 mph80%30.15 "HgN/A
4:50 AM25 °FPassing clouds.6 mph80%30.15 "HgN/A
4:20 AM25 °FPassing clouds.7 mph80%30.15 "HgN/A
3:50 AM25 °FPassing clouds.8 mph80%30.12 "HgN/A
3:20 AM25 °FPassing clouds.7 mph86%30.12 "HgN/A
2:50 AM27 °FPassing clouds.7 mph80%30.12 "HgN/A
2:20 AM27 °FPassing clouds.7 mph80%30.12 "HgN/A
1:50 AM27 °FPassing clouds.9 mph80%30.09 "HgN/A
1:20 AM27 °FPassing clouds.10 mph80%30.09 "HgN/A
12:50 AM27 °FPassing clouds.8 mph80%30.07 "HgN/A
12:20 AM28 °FPassing clouds.10 mph74%30.07 "HgN/A
11:50 PM
Oct 22
28 °FPassing clouds.8 mph74%30.07 "HgN/A
11:20 PM28 °FOvercast.12 mph80%30.07 "HgN/A
10:50 PM28 °FOvercast.10 mph80%30.04 "HgN/A
10:20 PM30 °FOvercast.10 mph75%30.04 "HgN/A
9:50 PM30 °FOvercast.8 mph80%30.04 "HgN/A
9:20 PM30 °FOvercast.9 mph80%30.01 "HgN/A
8:50 PM30 °FOvercast.10 mph80%30.01 "HgN/A
8:20 PM30 °FOvercast.10 mph80%29.98 "HgN/A
7:50 PM32 °FOvercast.9 mph75%29.98 "HgN/A
7:20 PM32 °FOvercast.10 mph80%29.98 "HgN/A
6:50 PM32 °FOvercast.8 mph80%29.95 "HgN/A
6:20 PM32 °FOvercast.8 mph80%29.95 "HgN/A
5:20 PM32 °FOvercast.9 mph80%29.92 "HgN/A
4:50 PM34 °FOvercast.10 mph81%29.92 "HgN/A
4:20 PM34 °FOvercast.10 mph81%29.92 "HgN/A
3:50 PM34 °FOvercast.9 mph81%29.89 "HgN/A
3:20 PM36 °FOvercast.14 mph75%29.89 "HgN/A
2:50 PM34 °FOvercast.9 mph81%29.89 "HgN/A
2:20 PM34 °FOvercast.12 mph87%29.89 "HgN/A
1:50 PM34 °FOvercast.12 mph87%29.89 "HgN/A
1:20 PM34 °FLow clouds.10 mph87%29.86 "HgN/A
Weather by CustomWeather, © 2014

See weather overviewHow to use our weather pages